Weather History for Wildwood, NJ

Change the Weather History Date:

Saturday, May 10, 2014

  Actual Average Record
Temperature  
Mean Temperature 73 °F -  
Max Temperature 78 °F 66 °F 78 °F (2001)
Min Temperature 66 °F 51 °F 42 °F (2005)
Cooling Degree Days 8    
Growing Degree Days 23 (Base 50)    
Moisture  
Dew Point 59 °F    
Average Humidity 60    
Maximum Humidity 73    
Minimum Humidity 50    
Precipitation  
Precipitation 0.00 in - - ()
Sea Level Pressure  
Sea Level Pressure 29.97 in    
Wind  
Wind Speed 13 mph (SW)    
Max Wind Speed 16 mph    
Max Gust Speed 22 mph    
Visibility 10 miles    
Events      
Averages and records for this station are not official NWS values.
T = Trace of Precipitation, MM = Missing Value Source: NWS Daily Summary

Daily Weather History Graph

Daily Weather History Graph

Search for Another Location

Airport:

Trip Planner

Search our weather history database for the weather conditions in past years. The results will help you decide how hot, cold, wet, or windy it might be!

Date:

Astronomy

May. 10, 2014 Rise Set
Actual Time 5:51 AM EDT 8:01 PM EDT
Civil Twilight 5:22 AM EDT 8:30 PM EDT
Nautical Twilight 4:45 AM EDT 9:07 PM EDT
Astronomical Twilight 4:06 AM EDT 9:46 PM EDT
Moon 3:56 PM EDT (5/10) 3:21 AM EDT (5/10)
Length of Visible Light 15h 08m
Length of Day
14h 09m
Waxing Gibbous, 82% of the Moon is Illuminated
May 10
Waxing Gibbous
May 14
Full
May 21
Last Quarter
May 28
New
Jun 5
First Quarter

Hourly Weather History & Observations

Time (EDT) Temp. Dew Point Humidity Pressure Visibility Wind Dir Wind Speed Gust Speed Precip Events Conditions
12:15 AM - - N/A% - - North - - N/A   Unknown
12:35 AM - - N/A% - - North - - N/A   Unknown
12:55 AM - - N/A% - - North - - N/A   Unknown
1:15 AM - - N/A% - - North - - N/A   Unknown
1:35 AM - - N/A% - - North - - N/A   Unknown
1:55 AM - - N/A% - - North - - N/A   Unknown
2:15 AM - - N/A% - - North - - N/A   Unknown
2:35 AM - - N/A% - - North - - N/A   Unknown
2:55 AM - - N/A% - - North - - N/A   Unknown
3:15 AM - - N/A% - - North - - N/A   Unknown
3:35 AM - - N/A% - - North - - N/A   Unknown
3:55 AM - - N/A% - - North - - N/A   Unknown
4:15 AM - - N/A% - - North - - N/A   Unknown
4:35 AM - - N/A% - - North - - N/A   Unknown
4:55 AM - - N/A% - - North - - N/A   Unknown
5:15 AM - - N/A% - - North - - N/A   Unknown
5:35 AM - - N/A% - - North - - N/A   Unknown
5:55 AM - - N/A% - - North - - N/A   Unknown
6:15 AM - - N/A% - - North - - N/A   Unknown
6:35 AM - - N/A% - - North - - N/A   Unknown
6:55 AM - - N/A% - - North - - N/A   Unknown
7:15 AM - - N/A% - - North - - N/A   Unknown
7:35 AM - - N/A% - - North - - N/A   Unknown
7:55 AM - - N/A% - - North - - N/A   Unknown
8:15 AM - - N/A% - - North - - N/A   Unknown
8:35 AM - - N/A% - - North - - N/A   Unknown
8:55 AM - - N/A% - - North - - N/A   Unknown
9:15 AM - - N/A% - - North - - N/A   Unknown
9:35 AM - - N/A% - - North - - N/A   Unknown
9:55 AM - - N/A% - - North - - N/A   Unknown
10:15 AM 73.4 °F 62.6 °F 69% 30.01 in 10.0 mi WSW 12.7 mph - N/A   Unknown
10:35 AM 73.4 °F 62.6 °F 69% 30.01 in 10.0 mi WSW 12.7 mph - N/A   Clear
10:55 AM 73.4 °F 60.8 °F 65% 30.01 in 10.0 mi WSW 10.4 mph - N/A   Clear
11:15 AM 75.2 °F 62.6 °F 65% 30.01 in 10.0 mi WSW 13.8 mph - N/A   Clear
11:35 AM 75.2 °F 62.6 °F 65% 30.00 in 10.0 mi SW 11.5 mph - N/A   Clear
11:55 AM 77.0 °F 62.6 °F 61% 30.00 in 10.0 mi WSW 13.8 mph 18.4 mph N/A   Clear
12:15 PM 78.8 °F 62.6 °F 57% 30.00 in 10.0 mi SW 12.7 mph - N/A   Clear
12:35 PM 78.8 °F 62.6 °F 57% 30.00 in 10.0 mi SW 11.5 mph - N/A   Clear
12:55 PM 78.8 °F 62.6 °F 57% 29.99 in 10.0 mi SW 9.2 mph - N/A   Clear
1:15 PM 77.0 °F 62.6 °F 61% 30.00 in 10.0 mi SW 11.5 mph - N/A   Clear
1:35 PM 77.0 °F 62.6 °F 61% 29.99 in 10.0 mi SW 11.5 mph - N/A   Clear
1:55 PM 78.8 °F 62.6 °F 57% 29.99 in 10.0 mi SW 11.5 mph 17.3 mph N/A   Clear
2:15 PM 78.8 °F 62.6 °F 57% 29.99 in 10.0 mi SW 15.0 mph 20.7 mph N/A   Mostly Cloudy
2:35 PM 77.0 °F 62.6 °F 61% 29.98 in 10.0 mi WSW 10.4 mph - N/A   Overcast
2:55 PM 77.0 °F 62.6 °F 61% 29.98 in 10.0 mi WSW 16.1 mph 20.7 mph N/A   Scattered Clouds
3:15 PM 75.2 °F 62.6 °F 65% 29.99 in 10.0 mi WSW 13.8 mph 20.7 mph N/A   Scattered Clouds
3:35 PM 78.8 °F 60.8 °F 54% 29.97 in 10.0 mi WSW 13.8 mph 18.4 mph N/A   Mostly Cloudy
3:55 PM 77.0 °F 57.2 °F 50% 29.96 in 10.0 mi WSW 10.4 mph 19.6 mph N/A   Partly Cloudy
4:15 PM 77.0 °F 57.2 °F 50% 29.96 in 10.0 mi West 10.4 mph 18.4 mph N/A   Clear
4:35 PM 77.0 °F 57.2 °F 50% 29.95 in 10.0 mi WSW 12.7 mph - N/A   Partly Cloudy
4:55 PM 77.0 °F 57.2 °F 50% 29.95 in 10.0 mi West 12.7 mph - N/A   Partly Cloudy
5:15 PM 75.2 °F 57.2 °F 53% 29.95 in 10.0 mi WSW 9.2 mph - N/A   Partly Cloudy
5:35 PM 75.2 °F 57.2 °F 53% 29.94 in 10.0 mi WSW 10.4 mph - N/A   Partly Cloudy
5:55 PM 75.2 °F 57.2 °F 53% 29.94 in 10.0 mi WSW 12.7 mph 17.3 mph N/A   Partly Cloudy
6:15 PM 73.4 °F 57.2 °F 57% 29.94 in 10.0 mi SW 15.0 mph 20.7 mph N/A   Scattered Clouds
6:35 PM 73.4 °F 57.2 °F 57% 29.94 in 10.0 mi SW 16.1 mph 21.9 mph N/A   Overcast
6:55 PM 73.4 °F 57.2 °F 57% 29.94 in 10.0 mi SW 12.7 mph - N/A   Mostly Cloudy
7:15 PM 73.4 °F 57.2 °F 57% 29.95 in 10.0 mi SW 11.5 mph - N/A   Scattered Clouds
7:35 PM 71.6 °F 57.2 °F 60% 29.95 in 10.0 mi SW 10.4 mph - N/A   Mostly Cloudy
7:55 PM 73.4 °F 57.2 °F 57% 29.95 in 10.0 mi WSW 8.1 mph 16.1 mph N/A   Mostly Cloudy
8:15 PM 71.6 °F 57.2 °F 60% 29.96 in 10.0 mi SW 10.4 mph - N/A   Partly Cloudy
8:35 PM 71.6 °F 57.2 °F 60% 29.97 in 10.0 mi SSW 15.0 mph 20.7 mph N/A   Scattered Clouds
8:55 PM 71.6 °F 57.2 °F 60% 29.96 in 10.0 mi SSW 12.7 mph - N/A   Overcast
9:15 PM 69.8 °F 57.2 °F 64% 29.97 in 10.0 mi SSW 16.1 mph 20.7 mph N/A   Overcast
9:35 PM 69.8 °F 57.2 °F 64% 29.97 in 10.0 mi SW 16.1 mph 20.7 mph N/A   Overcast
9:55 PM 69.8 °F 57.2 °F 64% 29.97 in 10.0 mi SW 15.0 mph 20.7 mph N/A   Mostly Cloudy
10:15 PM 69.8 °F 57.2 °F 64% 29.98 in 10.0 mi SW 16.1 mph 19.6 mph N/A   Clear
10:35 PM 69.8 °F 55.4 °F 60% 29.97 in 10.0 mi SW 12.7 mph 20.7 mph N/A   Clear
10:55 PM 68.0 °F 55.4 °F 64% 29.96 in 10.0 mi WSW 16.1 mph 21.9 mph N/A   Clear
11:15 PM 68.0 °F 55.4 °F 64% 29.96 in 10.0 mi WSW 15.0 mph 21.9 mph N/A   Clear
11:35 PM 68.0 °F 57.2 °F 68% 29.96 in 10.0 mi WSW 12.7 mph 20.7 mph N/A   Partly Cloudy
11:55 PM 66.2 °F 57.2 °F 73% 29.96 in 10.0 mi WSW 13.8 mph 21.9 mph N/A   Partly Cloudy